Terminal Aerodrome Forecast
Issued by NWS

Home | Current Version | Previous Version | Graphics & Text | Print | Product List | Glossary On
Versions: 1 2 3 4 5 6 7 8 9 10 11 12 13 14 15 16 17 18 19 20 21 22 23 24 25 26 27
000
FTUS43 KTOP 172300
TAFMHK
TAF
KMHK 172332Z 1800/1824 09007KT P6SM SKC
     FM180900 09005KT 6SM BR SCT150
      TEMPO 1811/1814 3SM BR
     FM181500 11009KT P6SM SCT200=

USA.gov is the U.S. government's official web portal to all federal, state and local government web resources and services.